Flag for Switzerland Weather past 2 weeks in Worb, Bern, Switzerland

Now
61 °F

Broken clouds.


Feels Like: 61 °F
Forecast: 49 / 76 °F
Wind: 1 mph from North

Location: Bern / Belp

Current Time: Sep 18, 2014 at 9:57:16 AM

Latest Report: Sep 18, 2014 at 9:20 AM


Visibility: N/A

Pressure: 29.92 "Hg

Humidity: 88%

Dew point: 57 °F

Location of WorbLocation

Historic Weather in Worb — Graph

°F

Worb temperature yesterday

Maximum temperature yesterday: 75 °F (at 3:50 PM)
Minimum temperature yesterday: 52 °F (at 3:20 AM)
Average temperature yesterday: 62 °F

Past Weeks' High & Low Weather Summary

 TemperatureHumidityPressure
High81 °F (Sep 8, 2:50 PM)100% (Sep 3, 8:20 AM)30.12 "Hg (Sep 3, 8:20 AM)
Low43 °F (Sep 14, 6:20 AM)44% (Sep 7, 5:50 PM)29.86 "Hg (Sep 17, 2:50 PM)
Average61 °F83%30.00 "Hg
* Reported Sep 3 8:20 AM — Sep 18 8:50 AM, Worb, Weather by CustomWeather, © 2014

Note: Actual official high and low records may vary slightly from our data, if they occured in-between our weather recording intervals... More about our weather records

Advertising

Worb weather history for previous 24 hours

 ConditionsComfort  
Time TempWeatherWind HumidityBarometerVisibility
8:50 AM
Sep 18
59 °FPartly sunny.2 mph94%29.89 "HgN/A
8:20 AM57 °FBroken clouds.2 mph100%29.89 "HgN/A
7:50 AM57 °FSprinkles. Passing clouds.6 mph100%29.89 "HgN/A
7:20 AM57 °FPartly cloudy.7 mph100%29.89 "HgN/A
6:50 AM57 °FPassing clouds.6 mph100%29.89 "HgN/A
6:20 AM57 °FPassing clouds.5 mph100%29.89 "HgN/A
5:50 AM57 °FSprinkles. Passing clouds.2 mph100%29.92 "HgN/A
5:20 AM57 °FSprinkles. Passing clouds.3 mph100%29.92 "HgN/A
4:50 AM57 °FPassing clouds.2 mph100%29.92 "Hg4 mi
4:20 AM57 °FPassing clouds.1 mph100%29.92 "HgN/A
3:50 AM57 °FOvercast.1 mph94%29.92 "Hg6 mi
3:20 AM55 °FOvercast.3 mph100%29.92 "Hg4 mi
2:50 AM55 °FFog.2 mph100%29.92 "Hg2 mi
2:20 AM55 °FPassing clouds.1 mph100%29.92 "Hg3 mi
1:50 AM57 °FPassing clouds.1 mph100%29.92 "Hg6 mi
1:20 AM55 °FPartly cloudy.1 mph100%29.92 "Hg4 mi
12:50 AM57 °FClear.2 mph100%29.92 "Hg5 mi
12:20 AM57 °FPassing clouds.3 mph100%29.92 "HgN/A
11:50 PM
Sep 17
57 °FOvercast.2 mph100%29.92 "Hg4 mi
11:20 PM57 °FOvercast.1 mph100%29.92 "Hg4 mi
10:50 PM57 °FPassing clouds.2 mph100%29.92 "Hg4 mi
10:20 PM59 °FPassing clouds.No wind100%29.92 "HgN/A
9:50 PM59 °FPassing clouds.2 mph94%29.92 "HgN/A
9:20 PM59 °FPassing clouds.3 mph94%29.89 "HgN/A
8:50 PM61 °FPartly cloudy.3 mph88%29.89 "HgN/A
8:20 PM61 °FThunderstorms. Broken clouds.10 mph88%29.89 "HgN/A
7:50 PM68 °FThunderstorms. Broken clouds.2 mph83%29.89 "HgN/A
7:20 PM70 °FBroken clouds.2 mph78%29.86 "HgN/A
6:50 PM70 °FBroken clouds.3 mph78%29.86 "HgN/A
6:20 PM72 °FBroken clouds.3 mph69%29.86 "HgN/A
5:50 PM73 °FBroken clouds.3 mph65%29.86 "HgN/A
5:20 PM73 °FPartly sunny.5 mph65%29.86 "HgN/A
4:50 PM75 °FScattered clouds.7 mph61%29.86 "HgN/A
4:20 PM75 °FScattered clouds.7 mph61%29.86 "HgN/A
3:50 PM75 °FScattered clouds.7 mph61%29.86 "HgN/A
3:20 PM73 °FScattered clouds.8 mph65%29.86 "HgN/A
2:50 PM73 °FScattered clouds.6 mph65%29.86 "HgN/A
2:20 PM73 °FScattered clouds.7 mph65%29.89 "HgN/A
1:50 PM73 °FSunny.7 mph65%29.89 "Hg10 mi
1:20 PM72 °FPartly sunny.5 mph65%29.89 "HgN/A
12:50 PM73 °FScattered clouds.5 mph61%29.89 "HgN/A
12:20 PM70 °FSunny.2 mph64%29.92 "Hg10 mi
11:50 AM68 °FSunny.No wind69%29.92 "Hg10 mi
11:20 AM68 °FSunny.2 mph64%29.92 "Hg10 mi
10:50 AM66 °FPassing clouds.5 mph68%29.92 "HgN/A
10:20 AM64 °FScattered clouds.5 mph78%29.92 "HgN/A
9:50 AM63 °FScattered clouds.5 mph83%29.92 "HgN/A
9:20 AM63 °FScattered clouds.6 mph83%29.92 "HgN/A
Weather by CustomWeather, © 2014

See weather overviewHow to use our weather pages